Beaufort, NC

2:53 PM EDT on August 18, 2017 (GMT -0400)
Smith

Weather History for KMRH - October, 2011

Change the Weather History Date:

Sunday, October 23, 2011

  Actual Average Record
Temperature  
Mean Temperature 64 °F -  
Max Temperature 70 °F 73 °F 83 °F (1949)
Min Temperature 57 °F 52 °F 37 °F (1974)
Degree Days  
Heating Degree Days 2    
Growing Degree Days 14 (Base 50)    
Moisture  
Dew Point 54 °F    
Average Humidity 73    
Maximum Humidity 90    
Minimum Humidity 51    
Precipitation  
Precipitation 0.00 in - - ()
Sea Level Pressure  
Sea Level Pressure 30.09 in    
Wind  
Wind Speed 8 mph (NNE)    
Max Wind Speed 12 mph    
Max Gust Speed 17 mph    
Visibility 10 miles    
Events      
Averages and records for this station are not official NWS values.
T = Trace of Precipitation, MM = Missing Value Source: NWS Daily Summary

Daily Weather History Graph

Daily Weather History Graph

Search for Another Location

Airport or City:

Trip Planner

Search our weather history database for the weather conditions in past years. The results will help you decide how hot, cold, wet, or windy it might be!

Date:

Astronomy

Oct. 23, 2011 Rise Set
Actual Time 7:18 AM EDT 6:22 PM EDT
Civil Twilight 6:53 AM EDT 6:48 PM EDT
Nautical Twilight 6:23 AM EDT 7:17 PM EDT
Astronomical Twilight 5:54 AM EDT 7:46 PM EDT
Moon 3:31 AM EDT (10/23) 4:05 PM EDT (10/23)
Length of Visible Light 11h 55m
Length of Day
11h 03m
Waning Crescent, 14% of the Moon is Illuminated
Oct 23
Waning Crescent
Oct 26
New
Nov 2
First Quarter
Nov 10
Full
Nov 18
Last Quarter

Hourly Weather History & Observations

Time (EDT) Temp. Dew Point Humidity Pressure Visibility Wind Dir Wind Speed Gust Speed Precip Events Conditions
12:56 AM 59.0 °F 54.0 °F 83% 30.07 in 10.0 mi NNE 9.2 mph - N/A   Overcast
2:56 AM 59.0 °F 53.1 °F 81% 30.07 in 10.0 mi NNE 9.2 mph - N/A   Overcast
3:56 AM 59.0 °F 53.1 °F 81% 30.06 in 10.0 mi NNE 9.2 mph - N/A   Overcast
4:56 AM 60.1 °F 53.1 °F 78% 30.07 in 10.0 mi NNE 9.2 mph - N/A   Overcast
6:56 AM 59.0 °F 53.1 °F 81% 30.07 in 10.0 mi NE 5.8 mph - N/A   Overcast
7:56 AM 57.9 °F 53.1 °F 84% 30.09 in 10.0 mi NNE 3.5 mph - N/A   Partly Cloudy
8:56 AM 61.0 °F 55.0 °F 81% 30.11 in 10.0 mi NNE 8.1 mph - N/A   Overcast
9:56 AM 64.0 °F 53.1 °F 67% 30.12 in 10.0 mi NNE 8.1 mph - N/A   Mostly Cloudy
10:56 AM 66.9 °F 53.1 °F 61% 30.12 in 10.0 mi ENE 10.4 mph 17.3 mph N/A   Clear
11:56 AM 69.1 °F 53.1 °F 57% 30.11 in 10.0 mi NNE 11.5 mph 17.3 mph N/A   Clear
12:56 PM 70.0 °F 51.1 °F 51% 30.10 in 10.0 mi NE 10.4 mph - N/A   Clear
1:56 PM 70.0 °F 53.1 °F 55% 30.09 in 10.0 mi NE 11.5 mph - N/A   Clear
3:56 PM 69.1 °F 52.0 °F 54% 30.07 in 10.0 mi NE 8.1 mph - N/A   Clear
4:56 PM 69.1 °F 52.0 °F 54% 30.07 in 10.0 mi NNE 9.2 mph - N/A   Clear
5:56 PM 66.0 °F 53.1 °F 63% 30.08 in 10.0 mi NNE 5.8 mph - N/A   Clear
6:56 PM 63.0 °F 55.0 °F 75% 30.08 in 10.0 mi NE 4.6 mph - N/A   Clear
7:56 PM 62.1 °F 57.0 °F 84% 30.09 in 10.0 mi NE 5.8 mph - N/A   Clear
8:56 PM 61.0 °F 55.9 °F 83% 30.10 in 10.0 mi NE 5.8 mph - N/A   Clear
9:56 PM 60.1 °F 55.9 °F 86% 30.10 in 10.0 mi NNE 5.8 mph - N/A   Clear
10:56 PM 59.0 °F 55.9 °F 90% 30.10 in 10.0 mi NNE 6.9 mph - N/A   Scattered Clouds
11:56 PM 59.0 °F 55.9 °F 90% 30.10 in 10.0 mi North 4.6 mph - N/A   Partly Cloudy